Regional Weather Roundup
Issued by NWS

Home | Current Version | Previous Version | Graphics & Text | Print | Product List | Glossary On
Versions: 1 2 3 4 5 6 7 8 9 10 11 12 13 14 15 16 17 18 19 20 21 22 23 24 25 26 27 28 29 30 31 32 33 34 35 36 37 38 39 40 41 42 43 44 45 46 47 48 49 50
000
ASUS43 KLMK 031210
RWRKY
KENTUCKY REGIONAL WEATHER ROUNDUP
NATIONAL WEATHER SERVICE LOUISVILLE KY
800 AM EDT WED JUN 03 2015

NOTE "FAIR" INDICATES FEW OR NO CLOUDS BELOW 12,000 FEET
WITH NO SIGNIFICANT WEATHER AND/OR OBSTRUCTIONS TO VISIBILITY.

KYZ001>023-026-027-061>063-070>075-031300-
WESTERN AND SOUTH CENTRAL KENTUCKY

CITY           SKY/WX    TMP DP  RH WIND       PRES   REMARKS
PADUCAH        PTSUNNY   62  57  83 NE5       30.05R HAZE
HENDERSON      CLOUDY    57  54  88 E3        30.06S
OWENSBORO      MOSUNNY   59  54  83 CALM      30.07S
HOPKINSVILLE   SUNNY     58  56  92 NE6       30.04R
BOWLING GREEN  CLOUDY    61  53  75 NE3       30.05R
GLASGOW        CLOUDY    59  53  80 NE3       30.05R
$$

KYZ024-025-028>034-038-045-046-053-031300-
NORTH CENTRAL KENTUCKY

CITY           SKY/WX    TMP DP  RH WIND       PRES   REMARKS
LOUISVILLE/SDF CLOUDY    62  54  74 CALM      30.07S
LOUISVILLE/LOU CLOUDY    62  54  74 NE3       30.08R
FORT KNOX      CLOUDY    58  55  87 N3        30.05S
$$

KYZ035>037-039>044-047>052-055>060-089>105-031300-
NORTHEAST KENTUCKY

CITY           SKY/WX    TMP DP  RH WIND       PRES   REMARKS
LEXINGTON      CLOUDY    59  55  87 E6        30.07R
COVINGTON      CLOUDY    56  53  90 CALM      30.09R FOG
FRANKFORT      CLOUDY    59  54  83 N5        30.07R HAZE
$$

KYZ054-064>069-076>088-106>120-031300-
SOUTHEAST KENTUCKY

CITY           SKY/WX    TMP DP  RH WIND       PRES   REMARKS
JACKSON        CLOUDY    58  55  90 CALM      30.07R FOG
LONDON         CLOUDY    60  54  80 NE6       30.05S
SOMERSET       CLOUDY    57  57 100 NE3       30.06S FOG
MIDDLESBORO    CLOUDY    61  58  90 CALM      30.05R
MONTICELLO     CLOUDY    60  60 100 E5        30.07S FOG
$$




USA.gov is the U.S. government's official web portal to all federal, state and local government web resources and services.